TimePST,TemperatureF,Dew PointF,Humidity,Sea Level PressureIn,VisibilityMPH,Wind Direction,Wind SpeedMPH,Gust SpeedMPH,PrecipitationIn,Events,Conditions,WindDirDegrees,DateUTC
12:56 AM,-11.9,-16.1,82,30.61,10.0,Calm,Calm,-,N/A,,Clear,0,2013-01-04 08:56:00
1:56 AM,-11.0,-15.0,83,30.60,10.0,SSE,4.6,-,N/A,,Clear,160,2013-01-04 09:56:00
2:56 AM,-11.0,-16.1,78,30.60,10.0,Calm,Calm,-,N/A,,Clear,0,2013-01-04 10:56:00
3:56 AM,-9.9,-14.1,82,30.60,10.0,NNW,3.5,-,N/A,,Clear,340,2013-01-04 11:56:00
4:56 AM,-11.9,-16.1,82,30.64,10.0,ESE,3.5,-,N/A,,Clear,120,2013-01-04 12:56:00
5:56 AM,-13.0,-18.0,78,30.67,10.0,Calm,Calm,-,N/A,,Clear,0,2013-01-04 13:56:00
6:56 AM,-11.0,-16.1,78,30.68,10.0,Calm,Calm,-,N/A,,Clear,0,2013-01-04 14:56:00
7:56 AM,-9.9,-11.9,91,30.70,10.0,Calm,Calm,-,N/A,,Clear,0,2013-01-04 15:56:00
8:56 AM,-2.0,-5.1,87,30.70,10.0,Calm,Calm,-,N/A,,Clear,0,2013-01-04 16:56:00
9:56 AM,8.1,1.9,76,30.68,10.0,Calm,Calm,-,N/A,,Clear,0,2013-01-04 17:56:00
10:56 AM,10.9,1.9,67,30.66,10.0,NNE,6.9,-,N/A,,Clear,20,2013-01-04 18:56:00
11:56 AM,16.0,5.0,62,30.61,10.0,NNE,4.6,-,N/A,,Clear,20,2013-01-04 19:56:00
12:56 PM,18.0,6.1,60,30.58,10.0,NE,4.6,-,N/A,,Clear,40,2013-01-04 20:56:00
1:56 PM,18.0,7.0,62,30.56,10.0,NNE,6.9,-,N/A,,Clear,20,2013-01-04 21:56:00
2:56 PM,19.0,8.1,62,30.56,10.0,NNE,6.9,-,N/A,,Clear,20,2013-01-04 22:56:00
3:56 PM,16.0,7.0,68,30.56,10.0,NE,4.6,-,N/A,,Clear,40,2013-01-04 23:56:00
4:56 PM,10.9,3.9,73,30.58,10.0,East,6.9,-,N/A,,Clear,90,2013-01-05 00:56:00
5:56 PM,9.0,3.9,80,30.60,10.0,ESE,6.9,-,N/A,,Clear,110,2013-01-05 01:56:00
6:56 PM,5.0,1.0,84,30.62,10.0,Calm,Calm,-,N/A,,Clear,0,2013-01-05 02:56:00
7:56 PM,1.0,-2.0,87,30.63,10.0,ESE,3.5,-,N/A,,Clear,110,2013-01-05 03:56:00
8:56 PM,-2.0,-6.0,83,30.60,10.0,SE,5.8,-,N/A,,Clear,140,2013-01-05 04:56:00
9:56 PM,-2.9,-6.0,87,30.57,10.0,SSE,4.6,-,N/A,,Clear,160,2013-01-05 05:56:00
10:56 PM,-5.1,-9.0,83,30.59,10.0,Calm,Calm,-,N/A,,Clear,0,2013-01-05 06:56:00
11:56 PM,-2.9,-6.0,87,30.55,10.0,SSE,3.5,-,N/A,,Clear,160,2013-01-05 07:56:00